Indianapolis, IN

9:32 PM EST on November 16, 2019 (GMT -0500)
Indianapolis International

Weather History for KIND - May, 2019

Change the Weather History Date:

Wednesday, May 1, 2019

  Actual Average Record
Temperature  
Mean Temperature 66 °F 58 °F  
Max Temperature 74 °F 68 °F 89 °F (1942)
Min Temperature 58 °F 48 °F 29 °F (1963)
Degree Days  
Heating Degree Days 0 8  
Month to date heating degree days 0 8  
Since 1 July heating degree days 5251 5230  
Cooling Degree Days 1 1  
Month to date cooling degree days 1 1  
Year to date cooling degree days 2 16  
Growing Degree Days 16 (Base 50)    
Moisture  
Dew Point 59 °F    
Average Humidity 79    
Maximum Humidity 100    
Minimum Humidity 57    
Precipitation  
Precipitation 0.19 in 0.16 in 1.76 in (1875)
Month to date precipitation 0.19 0.16  
Year to date precipitation 17.67 12.51  
Snow  
Snow 0.00 in 0.00 in T in (2016)
Month to date snowfall 0.0 0.0  
Since 1 July snowfall 19.4 25.9  
Snow Depth 0.00 in    
Sea Level Pressure  
Sea Level Pressure 29.99 in    
Wind  
Wind Speed 13 mph (SW)    
Max Wind Speed 28 mph    
Max Gust Speed 39 mph    
Visibility 10 miles    
Events Rain    
T = Trace of Precipitation, MM = Missing Value Source: NWS Daily Summary

Daily Weather History Graph

Daily Weather History Graph

Search for Another Location

Airport or City:

Astronomy

May. 01, 2019 Rise Set
Actual Time 6:46 AM EDT 8:39 PM EDT
Civil Twilight 6:16 AM EDT 9:08 PM EDT
Nautical Twilight 5:41 AM EDT 9:43 PM EDT
Astronomical Twilight 5:03 AM EDT 10:22 PM EDT
Moon 5:30 AM EDT (5/1) 5:27 PM EDT (5/1)
Length of Visible Light 14h 51m
Length of Day
13h 53m
Waning Crescent, 11% of the Moon is Illuminated
May 1
Waning Crescent
May 4
New
May 11
First Quarter
May 18
Full
May 26
Last Quarter

Hourly Weather History & Observations

Time (EDT) Temp. Dew Point Humidity Pressure Visibility Wind Dir Wind Speed Gust Speed Precip Events Conditions
12:54 AM 63.0 °F 59.0 °F 87% 29.98 in 10.0 mi East 6.9 mph - N/A   Mostly Cloudy
1:54 AM 63.0 °F 59.0 °F 87% 29.96 in 10.0 mi SE 8.1 mph - N/A   Scattered Clouds
2:54 AM 66.0 °F 55.0 °F 68% 29.94 in 10.0 mi SSE 9.2 mph - N/A   Mostly Cloudy
3:54 AM 68.0 °F 53.1 °F 59% 29.93 in 10.0 mi South 15.0 mph - N/A   Mostly Cloudy
4:54 AM 70.0 °F 54.0 °F 57% 29.89 in 10.0 mi South 19.6 mph - N/A   Scattered Clouds
5:54 AM 70.0 °F 57.0 °F 63% 29.89 in 10.0 mi South 17.3 mph 28.8 mph N/A   Mostly Cloudy
6:54 AM 69.1 °F 57.9 °F 68% 29.91 in 10.0 mi SSW 17.3 mph - N/A   Mostly Cloudy
7:54 AM 70.0 °F 59.0 °F 68% 29.94 in 10.0 mi SSW 21.9 mph 33.4 mph N/A   Mostly Cloudy
8:54 AM 70.0 °F 60.1 °F 71% 29.96 in 10.0 mi SW 16.1 mph 26.5 mph N/A   Overcast
9:54 AM 70.0 °F 61.0 °F 73% 29.96 in 10.0 mi SW 15.0 mph 25.3 mph N/A   Overcast
10:51 AM 71.6 °F 62.6 °F 73% 29.95 in 10.0 mi SSW 12.7 mph - 0.00 in Rain Light Rain
10:54 AM 70.0 °F 62.1 °F 76% 29.94 in 10.0 mi SSW 15.0 mph - 0.00 in Rain Light Rain
11:21 AM 72.0 °F 62.1 °F 71% 29.95 in 10.0 mi SSW 15.0 mph 25.3 mph 0.00 in   Overcast
11:54 AM 72.0 °F 62.1 °F 71% 29.95 in 10.0 mi SSW 18.4 mph - 0.00 in   Overcast
12:32 PM 71.1 °F 63.0 °F 75% 30.00 in 10.0 mi West 20.7 mph 27.6 mph N/A   Overcast
12:54 PM 66.0 °F 57.9 °F 75% 30.01 in 10.0 mi West 19.6 mph 32.2 mph 0.00 in Rain Light Rain
1:11 PM 66.0 °F 57.9 °F 75% 30.01 in 10.0 mi West 15.0 mph 25.3 mph 0.00 in Rain Light Rain
1:54 PM 73.0 °F 61.0 °F 66% 30.00 in 10.0 mi West 20.7 mph - 0.00 in   Mostly Cloudy
2:54 PM 73.0 °F 60.1 °F 64% 30.03 in 10.0 mi West 18.4 mph 28.8 mph N/A   Overcast
3:54 PM 72.0 °F 57.9 °F 61% 30.02 in 10.0 mi West 21.9 mph 27.6 mph N/A   Overcast
4:54 PM 71.1 °F 57.9 °F 63% 30.01 in 10.0 mi WSW 15.0 mph 21.9 mph N/A   Overcast
5:54 PM 68.0 °F 59.0 °F 73% 30.03 in 10.0 mi WSW 12.7 mph - 0.00 in Rain Light Rain
6:54 PM 64.9 °F 60.1 °F 84% 30.04 in 10.0 mi West 9.2 mph - 0.03 in Rain Light Rain
7:54 PM 62.1 °F 61.0 °F 96% 30.05 in 10.0 mi West 6.9 mph - 0.16 in Rain Light Rain
8:54 PM 62.1 °F 59.0 °F 90% 30.05 in 10.0 mi South 9.2 mph - 0.00 in   Mostly Cloudy
9:54 PM 60.1 °F 59.0 °F 96% 30.06 in 10.0 mi Calm Calm - N/A   Mostly Cloudy
10:54 PM 59.0 °F 59.0 °F 100% 30.07 in 10.0 mi Calm Calm - N/A   Mostly Cloudy
11:39 PM 59.0 °F 59.0 °F 100% 30.08 in 10.0 mi South 5.8 mph - N/A   Mostly Cloudy
11:54 PM 59.0 °F 59.0 °F 100% 30.08 in 10.0 mi South 6.9 mph - N/A   Mostly Cloudy